Dewpoint
76 76 76 76 76 74 75 75 74 74 74 73 73 73 73 73 73 73 72 71 71 71 72 71 71 70 70 71 72 73 76 68 70 68 69 70 68 67 66 66 65 68
76 76 76 76 76 75 76 75 75 74 75 75 74 74 74 73 73 73 72 71 71 70 71 70 70 71 70 69 70 69 71 70 69 67 68 68 70 69 64 69 66 68
76 76 76 75 75 75 72 74 75 75 74 74 74 74 73 72 71 73 72 71 70 68 71 70 70 70 69 70 69 68 68 70 69 66 69 68 69 68 68 61 64 64
76 76 75 74 74 74 74 74 75 75 74 73 73 72 71 70 71 70 72 71 71 70 69 69 69 68 69 69 68 68 68 69 68 69 72 69 67 68 68 67 67 69
76 76 75 74 74 75 75 74 72 74 72 73 72 73 73 73 72 70 71 70 71 70 70 69 69 68 69 68 69 68 68 68 68 69 69 70 69 68 67 68 68 68
76 76 76 75 75 75 74 73 73 72 72 71 72 72 72 73 71 70 70 69 69 67 67 67 68 67 68 68 69 69 67 66 66 68 68 67 68 66 66 67 66 66
76 76 76 75 74 75 75 74 74 73 72 71 73 72 72 72 71 70 70 69 68 68 66 67 68 68 68 68 68 68 69 68 67 67 66 67 67 67 65 66 67 66
75 75 75 75 74 74 74 74 74 73 73 73 72 72 72 71 71 70 70 70 68 68 68 68 68 69 67 68 68 68 68 67 67 68 67 66 65 65 66 65 66 67
75 76 76 75 73 73 71 71 73 74 74 73 71 71 72 71 71 70 71 70 68 68 68 68 69 68 68 68 67 68 67 66 66 67 67 65 65 65 65 66 65 66
76 76 74 73 72 72 70 70 71 72 73 73 71 70 72 72 72 70 71 70 68 68 68 68 69 68 68 68 68 68 67 67 66 66 66 66 65 65 65 65 65 65
74 74 75 74 73 72 71 70 71 71 72 71 70 69 72 72 72 71 71 70 67 67 68 68 68 68 68 67 68 67 67 67 67 67 67 66 66 66 66 65 64 64
73 74 74 74 73 71 71 70 70 71 72 72 71 70 72 71 71 69 69 69 68 68 68 68 69 69 69 67 66 67 67 67 67 68 67 67 66 66 66 66 65 65
74 74 74 74 74 73 71 71 70 70 71 71 71 71 71 70 70 70 69 69 68 68 68 68 69 69 69 68 68 68 67 67 66 67 66 66 66 65 64 64 64 65
75 74 74 75 75 75 73 71 71 70 71 73 72 71 70 70 70 69 69 68 68 68 68 69 69 68 69 69 69 68 67 67 67 66 65 65 65 64 63 62 63 63
75 75 74 75 75 75 74 73 72 72 72 73 73 72 70 69 69 69 69 69 68 68 69 68 67 68 68 68 68 68 67 66 66 66 65 65 64 64 63 63 63 62
76 76 75 76 75 75 75 74 72 72 71 73 73 72 72 71 71 70 68 68 68 69 69 68 67 68 66 63 65 66 66 65 66 66 66 65 65 64 63 63 63 61
76 76 76 76 76 76 75 74 74 73 73 73 74 73 72 72 72 70 68 68 69 68 66 66 68 67 61 61 62 63 65 66 66 66 66 66 65 65 64 64 63 64
77 77 77 77 77 76 76 75 75 75 74 74 73 73 73 72 71 70 69 69 69 66 63 65 68 64 59 59 61 61 64 66 66 66 66 66 65 64 65 64 64 63
77 78 78 78 77 77 76 76 76 75 75 75 74 74 74 73 72 70 70 70 69 68 65 67 68 60 59 59 60 60 61 65 65 66 65 65 65 65 65 65 66 65
78 78 78 78 78 78 77 76 76 75 74 75 74 74 73 72 71 71 71 70 69 69 68 67 65 59 58 57 58 58 60 62 67 66 65 64 65 65 64 64 66 69
78 78 78 78 78 77 77 76 76 76 75 74 72 72 72 71 70 70 70 70 68 68 68 65 63 57 56 56 56 57 58 60 66 66 66 66 65 64 63 63 69 68
78 78 78 77 77 77 76 76 76 76 75 74 73 73 72 71 71 69 69 69 68 67 65 64 61 56 55 56 55 56 58 64 65 65 65 65 65 66 65 68 68 69
78 77 77 77 76 76 75 75 75 75 75 74 72 71 71 71 71 69 70 67 67 67 65 64 61 57 55 54 55 55 57 63 63 64 64 64 64 65 66 67 69 69
78 77 77 76 75 74 74 73 73 73 73 74 72 69 67 68 69 70 69 68 66 65 63 63 60 59 53 53 53 54 58 62 63 64 63 63 64 64 65 67 69 70
77 77 77 75 75 74 73 72 71 72 72 72 70 70 69 70 69 69 68 68 65 64 64 62 62 62 53 53 53 53 58 63 64 64 63 63 64 64 66 69 67 68
76 77 76 75 75 74 73 73 72 70 71 70 70 69 70 69 69 68 67 65 64 64 65 63 62 68 59 52 52 53 56 64 65 64 63 64 64 66 66 66 67 66